Regional Weather Roundup
Issued by NWS

Home | Current Version | Previous Version | Text Only | Print | Product List | Glossary Off
Versions: 1 2 3 4 5 6 7 8 9 10 11 12 13 14 15 16 17 18 19 20 21 22 23 24 25 26 27 28 29 30 31 32 33 34 35 36 37 38 39 40 41 42 43 44 45 46 47 48 49 50

000
ASUS45 KCYS 300810
RWRWY

WYOMING REGIONAL WEATHER ROUNDUP
NATIONAL WEATHER SERVICE CHEYENNE WY
200 AM MDT THU MAR 30 2017

NOTE:  "FAIR" INDICATES FEW OR NO CLOUDS BELOW 12,000 FEET
WITH NO SIGNIFICANT WEATHER AND/OR OBSTRUCTIONS TO VISIBILITY.

WYZ001-300900-
YELLOWSTONE NATIONAL PARK

CITY           SKY/WX    TMP DP  RH WIND       PRES   REMARKS
LK YELLOWSTONE   N/A     31  31 100 CALM      29.93F
W YELLOWSTONE  NOT AVBL

$$
WYZ002>013-054>058-071-098>099-300900-
NORTHERN WYOMING

CITY           SKY/WX    TMP DP  RH WIND       PRES   REMARKS
JACKSON        CLOUDY    37  36  93 W6        29.94F WCI  33
CODY           FAIR      48  32  53 W9        29.83F
GREYBULL       FAIR      46  33  60 E3        29.80F
WORLAND        FAIR      42  37  82 S9        29.81F
SHERIDAN       FAIR      43  36  76 NW5       29.78F
BUFFALO        FAIR      45  30  55 SW6       29.81F
GILLETTE       FAIR      42  37  82 S14       29.81F
HULETT         FAIR      45  34  65 SW12G17   29.84S
NEWCASTLE      FAIR      39  34  81 SE10G21   29.89F WCI  32

$$
WYZ014>020-022>026-101>103-300900-
CENTRAL WYOMING

CITY           SKY/WX    TMP DP  RH WIND       PRES   REMARKS
BIG PINEY      MOCLDY    35  31  85 CALM      29.98F
PINEDALE       CLOUDY    36  32  87 NE3       29.99F
DUBOIS         PTSUNNY   37  30  75 N6        29.90F WCI  33
LANDER         MOCLDY    47  32  56 SE7       29.86F
RIVERTON       CLOUDY    47  33  58 NW10      29.86F
CASPER         FAIR      37  29  72 W7        29.85S WCI  32
DOUGLAS        FAIR      37  34  89 SE7       29.85F WCI  32

$$
WYZ021-027>030-104>119-300900-
SOUTHERN WYOMING

CITY           SKY/WX    TMP DP  RH WIND       PRES   REMARKS
EVANSTON       CLOUDY    38  27  64 SW9       30.01F WCI  31
KEMMERER         N/A     36  30  80 CALM      30.01F
FORT BRIDGER   PTSUNNY   40  31  69 W10       30.03F WCI  34
ROCK SPRINGS   FAIR      40  30  67 SW15      29.99F WCI  32
DIXON            N/A     32  28  85 CALM      30.05S
RAWLINS        FAIR      38  28  67 SW13      29.96F WCI  30
SARATOGA       FAIR      34  28  80 S6        30.00S WCI  29
LARAMIE        FAIR      32  25  75 S10       29.91F WCI  24
CHEYENNE       FAIR      35  32  88 SW12      29.90F WCI  27
TORRINGTON     FAIR      37  35  92 E9        29.87F WCI  30
PINE BLUFFS    FAIR      30  30 100 SW10      29.91F WCI  21

$$



USA.gov is the U.S. government's official web portal to all federal, state and local government web resources and services.